Location: Skalnate Pleso
(49.1889°N, 20.2450°E)
Time: 00:15:17
(UTC+01:00)

NOSS 3-3 (A) - Pass Details

Date: 19 November 2019
Orbit: 848 x 1364 km, 63.4° (Epoch: 05 December)

Event Time Altitude Azimuth Distance (km) Brightness Sun altitude
Exits shadow 04:26:35 46° 238° (WSW) 1,259 4.2 -23.9°
Maximum altitude 04:28:34 77° 314° (NW) 1,004 3.9 -23.5°
Drops below altitude 10° 04:35:24 10° 41° (NE) 2,918 6.9 -22.4°
Sets 04:38:15 0° 43° (NE) 3,959 7.7 -22.0°
